{"data":{"norad_id":43253,"epoch":"2026-09-20T03:32:23.345088Z","epoch_age_seconds":45854,"freshness":"FRESH","line1":"1 43253U 18030E   26263.14749242 -.00000021  00000+0 -14591-4 0  9999","line2":"2 43253  86.3915 250.6813 0001902  86.0741 274.0672 14.34217217443735","mean_motion":14.34217217,"eccentricity":0.0001902,"inclination_deg":86.3915,"raan_deg":250.6813,"arg_perigee_deg":86.0741,"mean_anomaly_deg":274.0672,"bstar":-1.4591e-5,"rev_number":44373,"period_min":100.40320133739,"perigee_km":776.30789294652,"apogee_km":779.02996152124,"semimajor_km":7155.8059272339,"source":"CELESTRAK","updated_at":"2026-09-20T09:00:36.329236Z"}}